Tracking 19644 objects as of 26-Apr-2019
HD Live streaming from Space Station
objects crossing your sky now

CZ-4 DEB

Track CZ-4 DEB now!
10-day predictions


NORAD ID: 27676
Int'l Code: 1999-057MQ
Perigee: 700.4 km
Apogee: 855.0 km
Inclination: 98.7 °
Period: 100.3 minutes
Semi major axis: 7148 km
RCS: 0.0052 m2 (small)
Launch date: October 14, 1999
Source: People's Republic of China (PRC)
Launch site: Taiyaun Space Center, China (TSC)

Note: This is SATELLITE DEBRIS
aabbcc
Your satellite tracking list
Your tracking list is empty




NASA's NSSDC Master Catalog

Two Line Element Set (TLE):
1 27676U 99057MQ  19113.40872574  .00000192  00000-0  76557-4 0  9996
2 27676  98.7366  86.2225 0108091  69.7823 291.4947 14.36352649851539
Source of the keplerian elements: AFSPC